Weather in Kletino

Russia / Ivanovo Oblast     56°47′12″N   41°39′12″E
temp.,
°C
wind,
m/s
gust,
m/s
humid.,
%
clouds,
%
prec.,
mm/h
press.,
hPa
HPBL,
m
17 may, mon
mon1700:00+13sw11880 0.0 101411
03:00+12w11925 0.0 101511
06:00+15sse118288 0.0 101652
09:00+21ese235949 0.0 1017621
12:00+25se23465 0.0 10161439
15:00+27se344259 0.0 10151710
18:00+24ese366255 0.0 1014267
21:00+17e31193100 1.4 1015190
18 may, tue
tue1800:00+17se3696100 0.4 1015119
03:00+15se379297 0.4 1015115
06:00+15ese3986100 0.0 1015162
09:00+22ese4860100 0.0 1015374
12:00+27se573819 0.0 10141164
15:00+28se583746 0.0 10132499
18:00+25ese510518 0.0 1013640
21:00+20ese4147063 0.0 1013348
19 may, wed
wed1900:00+17ese312765 0.0 1013259
03:00+16ese414725 0.0 1013297
06:00+17ese4146211 0.0 1013354
09:00+24se5114610 0.0 1013613
12:00+28se611344 0.0 10121727
15:00+30se59350 0.0 10123493
18:00+26ese510520 0.0 10121017
21:00+22ese514695 0.0 1012572
20 may, thu
thu2000:00+20ese414763 0.0 1012531
03:00+17ese413825 0.0 1012366
06:00+18ese413738 0.0 1011434
09:00+23se69565 0.0 1011925
12:00+26se7104799 0.0 10101513
15:00+25sse7135615 0.3 10102019
18:00+21s613649 1.3 10111672
21:00+18s5127139 1.3 10131049
21 may, fri
fri2100:00+14sse28895 0.0 1013213
03:00+13sse39973 0.0 1014274
06:00+15s4108822 0.0 1013466
09:00+17sw686689 0.0 10141202
12:00+17sw585899 0.0 10171064
15:00+20sw6951100 0.0 10171751
18:00+18sw47615 0.0 1018830
21:00+13ssw228141 0.0 101841